Location: Bremen
(53.0793°N, 8.8017°E)
Time: 21:29:28
(UTC+02:00)

Envisat - Pass Details

Date: 29 February 2024
Orbit: 762 x 764 km, 98.3° (Epoch: 13 April)

Event Time Altitude Azimuth Distance (km) Brightness Sun altitude
Rises 03:37:03 0° 18° (NNE) 3,244 6.9 -32.0°
Reaches altitude 10° 03:39:26 10° 23° (NNE) 2,313 6.1 -31.7°
Enters shadow 03:43:57 51° 80° (E) 966 3.7 -31.1°
